カタログに戻る

BREEZE-M DEB

LostHEO
NORAD 38636·DEBRIS·🇷🇺 Russia

打ち上げ Mar 14, 2008 から Baikonur Cosmodrome

Loading…

次のパス (今後24時間)

TLE

古いSource: Space-Track

元期: Oct 2, 2025, 02:04 UTC

1 38636U 08011CK  25275.08629459  .00001512  00000-0  25432-2 0  9997
2 38636  49.4705 317.9242 6523914 246.2626  35.0485  3.18488725164117

AllMySatでBREEZE-M DEBをリアルタイム追跡

Download on the App Store